Location: São Paulo
(23.5507°S, 46.6334°W)
Time: 14:24:33
(UTC-03:00)

Courier 1B - Visible Passes

Search period start: 18 February 2026 00:00
Search period end: 28 February 2026 00:00
Orbit: 962 x 1208 km, 28.3° (Epoch: 18 February)

Date Brightness Start Highest point End Pass type
(mag) Time Alt. Az. Time Alt. Az. Time Alt. Az.
18 Feb 9.5 04:10:00 14° N 04:13:33 19° NNE 04:18:24 10° ENE visible
19 Feb 9.8 03:19:40 14° NNE 03:19:40 14° NNE 03:23:04 10° ENE visible
19 Feb 8.5 05:06:34 10° NW 05:13:33 44° NNE 05:20:09 10° E visible
20 Feb 8.8 04:16:12 23° NNW 04:19:37 34° NNE 04:25:58 10° E visible
21 Feb 9.2 03:25:47 26° NNE 03:25:47 26° NNE 03:31:32 10° E visible
21 Feb 8.0 05:12:41 12° WNW 05:19:41 68° NNE 05:26:44 10° ESE visible
22 Feb 10.0 02:35:22 14° ENE 02:35:22 14° ENE 02:36:43 10° ENE visible
22 Feb 8.2 04:22:16 32° NW 04:25:42 54° NNE 04:32:45 10° E visible
23 Feb 8.5 03:31:48 43° NNE 03:31:48 43° NNE 03:38:38 10° E visible
23 Feb 7.9 05:18:41 12° WNW 05:25:55 86° SSW 05:33:06 10° ESE visible
24 Feb 9.6 02:41:18 22° ENE 02:41:18 22° ENE 02:44:20 10° E visible
24 Feb 7.8 04:28:11 34° WNW 04:31:51 80° NNE 04:39:12 10° ESE visible
25 Feb 7.9 03:37:40 66° NNE 03:37:48 66° NNE 03:45:13 10° ESE visible
25 Feb 8.0 05:24:38 10° W 05:32:16 69° S 05:39:27 10° ESE visible
26 Feb 9.2 02:47:08 32° E 02:47:08 32° E 02:51:08 10° E visible
26 Feb 7.9 04:34:01 31° W 04:38:07 78° SSW 04:45:32 10° ESE visible
27 Feb 10.3 01:56:34 11° E 01:56:34 11° E 01:56:53 10° E visible
27 Feb 7.7 03:43:27 80° WNW 03:43:59 89° SSW 03:51:35 10° ESE visible
27 Feb 8.2 05:31:06 10° W 05:38:43 61° S 05:45:53 10° ESE visible
